QPF
0.00 0.00 0.00 0.00 0.00 0.00 0.00 0.00 0.00 0.00 0.00 0.00 0.00 0.00 0.00 0.00 0.00 0.00 0.00 0.00 0.00 0.00 0.00 0.00 0.00 0.00 0.00 0.00 0.00 0.00 0.00 0.00 0.00 0.00 0.00 0.00 0.00 0.01 0.02 0.01 0.00 0.03 0.08 0.17 0.17 0.26 0.13
0.00 0.00 0.00 0.00 0.00 0.00 0.00 0.00 0.00 0.00 0.00 0.00 0.00 0.00 0.00 0.00 0.00 0.00 0.00 0.00 0.00 0.00 0.00 0.00 0.00 0.00 0.00 0.00 0.00 0.00 0.00 0.00 0.00 0.00 0.00 0.00 0.00 0.00 0.00 0.00 0.00 0.03 0.11 0.15 0.12 0.25 0.14
0.00 0.00 0.00 0.00 0.00 0.00 0.00 0.00 0.00 0.00 0.00 0.00 0.00 0.00 0.00 0.00 0.00 0.00 0.00 0.00 0.00 0.00 0.00 0.00 0.00 0.00 0.00 0.00 0.00 0.00 0.00 0.00 0.00 0.00 0.00 0.00 0.00 0.00 0.00 0.00 0.00 0.01 0.06 0.13 0.06 0.12 0.07
0.00 0.00 0.00 0.00 0.00 0.00 0.00 0.00 0.00 0.00 0.00 0.00 0.00 0.00 0.00 0.00 0.00 0.00 0.00 0.00 0.00 0.00 0.00 0.00 0.00 0.00 0.00 0.00 0.00 0.00 0.00 0.00 0.00 0.00 0.00 0.00 0.00 0.00 0.00 0.00 0.00 0.00 0.09 0.22 0.07 0.02 0.02
0.00 0.00 0.00 0.00 0.00 0.00 0.00 0.00 0.00 0.00 0.00 0.00 0.00 0.00 0.00 0.00 0.00 0.00 0.00 0.00 0.00 0.00 0.00 0.00 0.00 0.00 0.00 0.00 0.00 0.00 0.00 0.00 0.00 0.00 0.00 0.00 0.00 0.00 0.00 0.00 0.00 0.00 0.07 0.16 0.16 0.08 0.04
0.00 0.00 0.00 0.00 0.00 0.00 0.00 0.00 0.00 0.00 0.00 0.00 0.00 0.00 0.00 0.00 0.00 0.00 0.00 0.00 0.00 0.00 0.00 0.00 0.00 0.00 0.00 0.00 0.00 0.00 0.00 0.00 0.00 0.00 0.00 0.00 0.00 0.00 0.00 0.00 0.00 0.00 0.01 0.06 0.13 0.12 0.26
0.00 0.00 0.00 0.00 0.00 0.00 0.00 0.00 0.00 0.00 0.00 0.00 0.00 0.00 0.00 0.00 0.00 0.00 0.00 0.00 0.00 0.00 0.00 0.00 0.00 0.00 0.00 0.00 0.00 0.00 0.00 0.00 0.00 0.00 0.00 0.00 0.00 0.00 0.00 0.00 0.00 0.00 0.00 0.00 0.06 0.25 0.23
0.00 0.00 0.00 0.00 0.00 0.00 0.00 0.00 0.00 0.00 0.00 0.00 0.00 0.00 0.00 0.00 0.00 0.00 0.00 0.00 0.00 0.00 0.00 0.00 0.00 0.00 0.00 0.00 0.00 0.00 0.00 0.00 0.00 0.00 0.00 0.00 0.00 0.00 0.00 0.00 0.00 0.00 0.00 0.03 0.06 0.17 0.12
0.00 0.00 0.00 0.00 0.00 0.00 0.00 0.00 0.00 0.00 0.00 0.00 0.00 0.00 0.00 0.00 0.00 0.00 0.00 0.00 0.00 0.00 0.00 0.00 0.00 0.00 0.00 0.00 0.00 0.00 0.00 0.00 0.00 0.00 0.00 0.00 0.00 0.00 0.00 0.00 0.00 0.00 0.00 0.00 0.02 0.04 0.03
0.00 0.00 0.00 0.00 0.00 0.00 0.00 0.00 0.00 0.00 0.00 0.00 0.00 0.00 0.00 0.00 0.00 0.00 0.00 0.00 0.00 0.00 0.00 0.00 0.00 0.00 0.00 0.00 0.00 0.00 0.00 0.00 0.00 0.00 0.00 0.00 0.00 0.00 0.00 0.00 0.00 0.00 0.00 0.00 0.00 0.00 0.00
0.00 0.00 0.00 0.00 0.00 0.00 0.00 0.00 0.00 0.00 0.00 0.00 0.00 0.00 0.00 0.00 0.00 0.00 0.00 0.00 0.00 0.00 0.00 0.00 0.00 0.00 0.00 0.00 0.00 0.00 0.00 0.00 0.00 0.00 0.00 0.00 0.00 0.00 0.00 0.00 0.00 0.01 0.00 0.00 0.00 0.00 0.00
0.00 0.00 0.00 0.00 0.00 0.00 0.00 0.00 0.00 0.00 0.00 0.00 0.00 0.00 0.00 0.00 0.00 0.00 0.00 0.00 0.00 0.00 0.00 0.00 0.00 0.00 0.00 0.00 0.00 0.00 0.00 0.00 0.00 0.00 0.00 0.00 0.00 0.00 0.00 0.00 0.00 0.00 0.00 0.00 0.00 0.00 0.00
0.00 0.00 0.00 0.00 0.00 0.00 0.00 0.00 0.00 0.00 0.00 0.00 0.00 0.00 0.00 0.00 0.00 0.00 0.00 0.00 0.00 0.00 0.00 0.00 0.00 0.00 0.00 0.00 0.00 0.00 0.00 0.00 0.00 0.00 0.00 0.00 0.00 0.00 0.00 0.00 0.00 0.00 0.00 0.00 0.01 0.00 0.00
0.00 0.00 0.00 0.00 0.00 0.00 0.00 0.00 0.00 0.00 0.00 0.00 0.00 0.00 0.00 0.00 0.00 0.00 0.00 0.00 0.00 0.00 0.00 0.00 0.00 0.00 0.00 0.00 0.00 0.00 0.00 0.00 0.00 0.00 0.00 0.00 0.00 0.00 0.00 0.00 0.00 0.00 0.00 0.00 0.00 0.00 0.00
0.00 0.00 0.00 0.00 0.00 0.00 0.00 0.00 0.00 0.00 0.00 0.00 0.00 0.00 0.00 0.00 0.00 0.00 0.00 0.00 0.00 0.00 0.00 0.00 0.00 0.00 0.00 0.00 0.00 0.00 0.00 0.00 0.00 0.00 0.00 0.00 0.00 0.00 0.00 0.00 0.00 0.00 0.00 0.00 0.00 0.00 0.00
0.00 0.00 0.00 0.00 0.00 0.00 0.00 0.00 0.00 0.00 0.00 0.00 0.00 0.00 0.00 0.00 0.00 0.00 0.00 0.00 0.00 0.00 0.00 0.00 0.00 0.00 0.00 0.00 0.00 0.00 0.00 0.00 0.00 0.00 0.00 0.00 0.00 0.00 0.00 0.00 0.00 0.00 0.00 0.00 0.00 0.00 0.00
0.00 0.00 0.00 0.00 0.00 0.00 0.00 0.00 0.00 0.00 0.00 0.00 0.00 0.00 0.00 0.00 0.00 0.00 0.00 0.00 0.00 0.00 0.00 0.00 0.00 0.00 0.00 0.00 0.00 0.00 0.00 0.00 0.00 0.00 0.00 0.00 0.00 0.00 0.00 0.00 0.00 0.00 0.00 0.00 0.00 0.00 0.00
0.00 0.00 0.00 0.00 0.00 0.00 0.00 0.00 0.00 0.00 0.00 0.00 0.00 0.00 0.00 0.00 0.00 0.00 0.00 0.00 0.00 0.00 0.00 0.00 0.00 0.00 0.00 0.00 0.00 0.00 0.00 0.00 0.00 0.00 0.00 0.00 0.00 0.00 0.00 0.00 0.00 0.00 0.00 0.00 0.00 0.00 0.00
0.00 0.00 0.00 0.00 0.00 0.00 0.00 0.00 0.00 0.00 0.00 0.00 0.00 0.00 0.00 0.00 0.00 0.00 0.00 0.00 0.00 0.00 0.00 0.00 0.00 0.00 0.00 0.00 0.00 0.00 0.00 0.00 0.00 0.00 0.00 0.00 0.00 0.00 0.00 0.00 0.00 0.00 0.00 0.00 0.00 0.00 0.00
0.00 0.00 0.00 0.00 0.00 0.00 0.00 0.00 0.00 0.00 0.00 0.00 0.00 0.00 0.00 0.00 0.00 0.00 0.00 0.00 0.00 0.00 0.00 0.00 0.00 0.00 0.00 0.00 0.00 0.00 0.00 0.00 0.00 0.00 0.00 0.00 0.00 0.00 0.00 0.00 0.00 0.00 0.00 0.00 0.00 0.00 0.00
0.00 0.00 0.00 0.00 0.00 0.00 0.00 0.00 0.00 0.00 0.00 0.00 0.00 0.00 0.00 0.00 0.00 0.00 0.00 0.00 0.00 0.00 0.00 0.00 0.00 0.00 0.00 0.00 0.00 0.00 0.00 0.00 0.00 0.00 0.00 0.00 0.00 0.00 0.00 0.00 0.00 0.00 0.00 0.00 0.00 0.00 0.00
0.00 0.00 0.00 0.00 0.00 0.00 0.00 0.00 0.00 0.00 0.00 0.00 0.00 0.00 0.00 0.00 0.00 0.00 0.00 0.00 0.00 0.00 0.00 0.00 0.00 0.00 0.00 0.00 0.01 0.00 0.00 0.00 0.00 0.00 0.00 0.00 0.00 0.00 0.00 0.00 0.00 0.00 0.00 0.00 0.00 0.00 0.00
0.00 0.00 0.00 0.00 0.00 0.00 0.00 0.00 0.00 0.00 0.00 0.00 0.00 0.00 0.00 0.00 0.00 0.00 0.00 0.00 0.00 0.00 0.00 0.00 0.00 0.00 0.00 0.00 0.00 0.00 0.00 0.00 0.00 0.00 0.00 0.00 0.00 0.00 0.00 0.01 0.00 0.00 0.00 0.00 0.00 0.00 0.00
0.00 0.00 0.00 0.00 0.00 0.00 0.00 0.00 0.00 0.00 0.00 0.00 0.00 0.00 0.00 0.00 0.00 0.00 0.00 0.00 0.00 0.00 0.00 0.00 0.00 0.00 0.00 0.00 0.00 0.00 0.00 0.00 0.00 0.00 0.00 0.00 0.00 0.00 0.00 0.01 0.01 0.00 0.02 0.02 0.00 0.00 0.00
0.00 0.00 0.00 0.00 0.00 0.00 0.00 0.00 0.00 0.00 0.00 0.00 0.00 0.00 0.00 0.00 0.00 0.00 0.00 0.00 0.00 0.00 0.00 0.00 0.00 0.00 0.00 0.00 0.00 0.00 0.00 0.00 0.00 0.00 0.00 0.00 0.00 0.00 0.01 0.01 0.00 0.00 0.01 0.04 0.01 0.01 0.02
0.00 0.00 0.00 0.00 0.00 0.00 0.00 0.00 0.00 0.00 0.00 0.00 0.00 0.00 0.00 0.00 0.00 0.00 0.00 0.00 0.00 0.00 0.00 0.00 0.00 0.00 0.00 0.00 0.00 0.00 0.00 0.00 0.00 0.00 0.00 0.00 0.00 0.00 0.00 0.00 0.00 0.00 0.00 0.00 0.03 0.02 0.02
0.00 0.00 0.00 0.00 0.00 0.00 0.00 0.00 0.00 0.00 0.00 0.00 0.00 0.00 0.00 0.00 0.00 0.00 0.00 0.00 0.00 0.00 0.00 0.00 0.00 0.00 0.00 0.00 0.00 0.00 0.00 0.00 0.01 0.00 0.00 0.00 0.00 0.00 0.00 0.00 0.00 0.00 0.00 0.00 0.00 0.00 0.02
0.00 0.00 0.00 0.00 0.00 0.00 0.00 0.00 0.00 0.00 0.00 0.00 0.00 0.00 0.00 0.00 0.00 0.00 0.00 0.00 0.00 0.00 0.00 0.00 0.00 0.00 0.00 0.00 0.00 0.00 0.00 0.00 0.00 0.00 0.00 0.00 0.00 0.00 0.00 0.00 0.00 0.00 0.00 0.00 0.00 0.01 0.03
0.00 0.00 0.00 0.00 0.00 0.00 0.00 0.00 0.00 0.00 0.00 0.00 0.00 0.00 0.00 0.00 0.00 0.00 0.00 0.00 0.00 0.00 0.00 0.00 0.00 0.00 0.00 0.00 0.00 0.00 0.00 0.00 0.00 0.00 0.00 0.00 0.00 0.00 0.00 0.00 0.00 0.00 0.00 0.00 0.00 0.01 0.02
MSLP
1020.42 1020.17 1019.84 1019.47 1019.13 1018.79 1018.50 1018.19 1017.81 1017.43 1017.12 1016.84 1016.53 1016.24 1016.00 1015.69 1015.41 1015.13 1014.83 1014.67 1014.62 1014.52 1014.35 1014.13 1013.81 1013.63 1013.36 1012.55 1009.54 1007.05 1006.82 1007.64 1008.40 1009.07 1009.36 1009.40 1009.67 1010.28 1010.40 1010.06 1010.12 1009.82 1009.59 1009.64 1009.85 1010.09 1010.40
1020.34 1020.05 1019.71 1019.37 1019.02 1018.69 1018.34 1018.00 1017.67 1017.34 1016.98 1016.71 1016.39 1016.02 1015.63 1015.36 1015.13 1014.83 1014.57 1014.38 1014.22 1014.18 1014.07 1013.90 1013.76 1013.49 1013.38 1011.20 1007.47 1007.18 1007.39 1008.06 1008.30 1008.89 1009.27 1009.31 1009.32 1009.53 1009.93 1009.64 1009.50 1008.71 1009.60 1009.84 1010.23 1010.28 1010.76
1020.19 1019.85 1019.55 1019.23 1018.89 1018.58 1018.30 1017.95 1017.55 1017.22 1016.91 1016.53 1016.23 1015.88 1015.51 1015.17 1014.85 1014.55 1014.30 1014.14 1014.05 1013.92 1013.73 1013.65 1013.59 1013.37 1012.71 1009.32 1007.80 1007.57 1007.85 1008.18 1008.25 1008.48 1009.14 1009.21 1009.19 1009.39 1009.70 1009.22 1008.60 1008.64 1009.28 1010.06 1010.52 1010.73 1010.69
1020.05 1019.70 1019.37 1019.10 1018.76 1018.48 1018.15 1017.77 1017.38 1017.07 1016.82 1016.45 1016.15 1015.84 1015.42 1015.00 1014.73 1014.40 1014.19 1013.99 1013.81 1013.61 1013.51 1013.30 1013.21 1013.29 1011.25 1008.22 1007.84 1007.92 1007.95 1008.24 1008.45 1008.84 1009.04 1009.04 1009.29 1009.58 1009.65 1009.09 1008.59 1008.82 1009.36 1010.22 1010.47 1010.63 1011.16
1020.02 1019.60 1019.27 1019.02 1018.67 1018.37 1018.10 1017.74 1017.30 1016.89 1016.54 1016.20 1015.81 1015.39 1015.00 1014.77 1014.37 1014.07 1013.72 1013.51 1013.37 1013.27 1013.10 1013.04 1013.14 1012.94 1009.89 1007.70 1007.79 1007.22 1007.61 1007.94 1008.43 1009.00 1009.24 1008.92 1009.23 1009.55 1009.42 1009.45 1009.36 1009.12 1009.52 1010.01 1010.59 1010.87 1011.11
1019.97 1019.57 1019.23 1018.98 1018.67 1018.30 1017.92 1017.51 1017.03 1016.50 1016.08 1015.72 1015.48 1015.06 1014.86 1014.33 1014.14 1013.96 1013.37 1012.86 1012.95 1013.17 1013.09 1012.96 1012.75 1012.32 1009.18 1007.47 1006.74 1006.74 1007.21 1007.69 1008.21 1008.89 1009.34 1009.32 1009.54 1009.79 1010.10 1010.01 1009.92 1009.68 1009.90 1010.23 1010.22 1010.94 1011.67
1020.06 1019.60 1019.22 1018.85 1018.53 1018.15 1017.72 1017.26 1016.79 1016.27 1015.81 1015.43 1014.93 1014.52 1014.28 1014.12 1013.96 1013.54 1013.37 1013.02 1013.22 1012.87 1012.47 1011.04 1010.28 1009.45 1008.00 1006.92 1006.02 1006.52 1006.85 1007.69 1007.87 1008.56 1009.19 1009.44 1010.06 1009.97 1009.81 1009.80 1009.63 1009.61 1009.80 1010.07 1010.90 1011.86 1012.66
1020.00 1019.51 1019.06 1018.66 1018.37 1018.01 1017.62 1017.19 1016.69 1016.15 1015.58 1015.01 1014.70 1014.30 1014.03 1013.77 1013.58 1013.51 1013.62 1012.92 1011.50 1011.26 1010.82 1009.40 1008.84 1008.56 1007.64 1007.17 1006.91 1006.39 1006.62 1007.71 1008.03 1008.60 1009.05 1009.80 1009.78 1009.44 1009.35 1009.42 1009.50 1009.62 1009.93 1010.86 1012.21 1012.64 1012.95
1019.82 1019.39 1019.01 1018.60 1018.29 1017.90 1017.50 1017.00 1016.48 1015.96 1015.40 1014.84 1014.41 1014.22 1013.74 1013.52 1013.29 1013.58 1012.83 1011.63 1010.40 1010.32 1010.40 1008.52 1007.90 1007.44 1006.76 1006.98 1006.62 1006.21 1006.53 1007.14 1007.78 1008.63 1009.14 1009.56 1009.20 1008.86 1009.09 1009.14 1009.32 1009.55 1009.77 1010.38 1011.60 1013.17 1013.65
1019.83 1019.42 1018.98 1018.54 1018.16 1017.74 1017.25 1016.90 1016.40 1015.94 1015.40 1014.88 1014.39 1013.89 1013.55 1012.59 1013.14 1012.76 1011.72 1010.20 1010.00 1009.87 1010.02 1008.45 1007.17 1005.99 1005.97 1006.00 1006.03 1005.34 1005.93 1006.78 1007.46 1008.18 1009.08 1009.12 1008.65 1008.67 1008.72 1008.95 1009.21 1009.45 1009.05 1009.91 1011.15 1012.68 1013.92
1019.80 1019.39 1018.91 1018.47 1018.02 1017.51 1017.06 1016.63 1016.16 1015.61 1015.06 1014.71 1014.26 1013.88 1013.46 1013.36 1013.18 1012.26 1010.39 1009.70 1009.55 1009.64 1009.54 1007.54 1006.54 1005.36 1005.65 1006.08 1005.88 1005.44 1005.46 1006.22 1007.17 1007.88 1008.72 1008.80 1008.38 1008.36 1008.45 1008.63 1008.88 1009.05 1009.24 1009.67 1011.05 1012.51 1013.66
1019.82 1019.36 1018.81 1018.23 1017.70 1017.24 1016.76 1016.23 1015.70 1015.16 1014.57 1014.22 1013.99 1013.66 1013.44 1013.39 1013.26 1010.98 1010.20 1009.76 1009.65 1010.49 1009.52 1008.09 1006.94 1006.56 1006.39 1006.35 1006.11 1005.79 1005.82 1006.06 1006.76 1007.85 1008.38 1008.45 1008.02 1008.01 1007.81 1007.83 1008.23 1008.63 1009.09 1010.18 1011.51 1012.59 1013.67
1019.77 1019.24 1018.77 1018.25 1017.67 1017.19 1016.62 1016.07 1015.52 1014.82 1014.38 1013.81 1013.48 1013.25 1013.60 1012.44 1011.32 1010.32 1010.14 1010.31 1011.15 1010.77 1009.93 1009.40 1008.51 1008.06 1007.74 1007.82 1007.05 1006.83 1006.84 1007.23 1007.77 1008.57 1009.02 1008.72 1008.18 1007.74 1007.45 1007.77 1008.11 1008.55 1009.54 1011.02 1012.78 1013.29 1013.21
1019.70 1019.28 1018.77 1018.26 1017.69 1017.06 1016.49 1015.93 1015.36 1014.66 1014.00 1013.07 1012.54 1012.41 1012.28 1011.28 1010.47 1010.37 1010.71 1011.43 1011.79 1011.24 1010.57 1009.97 1009.55 1009.02 1009.26 1009.22 1008.88 1008.24 1008.08 1008.40 1008.63 1008.90 1009.76 1009.46 1008.56 1007.55 1007.16 1007.30 1007.65 1008.36 1009.40 1010.48 1011.72 1012.88 1012.81
1019.76 1019.27 1018.70 1018.07 1017.57 1017.15 1016.60 1016.00 1015.24 1014.30 1013.66 1012.70 1011.89 1011.88 1011.77 1010.14 1010.45 1010.98 1011.51 1012.42 1012.08 1011.56 1010.94 1010.52 1010.32 1010.49 1010.45 1010.07 1009.97 1009.65 1009.73 1009.46 1009.45 1009.33 1009.86 1009.73 1008.78 1007.41 1006.91 1006.81 1007.17 1007.96 1008.86 1009.03 1010.48 1011.73 1012.35
1019.65 1019.20 1018.71 1018.33 1017.81 1017.14 1016.54 1015.97 1015.33 1014.38 1013.52 1012.81 1012.17 1011.76 1010.44 1009.48 1009.82 1010.58 1011.89 1012.66 1012.30 1011.46 1010.94 1010.80 1010.93 1011.17 1011.59 1011.34 1010.98 1010.82 1010.48 1010.03 1009.79 1009.66 1009.79 1009.88 1009.47 1007.90 1006.98 1006.55 1006.77 1007.09 1007.84 1009.33 1010.56 1011.86 1012.62
1019.62 1019.18 1018.64 1018.05 1017.42 1016.80 1016.29 1015.70 1015.11 1014.20 1013.21 1012.50 1012.22 1011.43 1009.59 1009.46 1009.56 1011.32 1012.88 1012.90 1012.03 1011.11 1010.73 1010.68 1010.79 1011.31 1011.78 1011.79 1011.70 1011.42 1011.11 1010.18 1009.86 1009.67 1009.66 1010.16 1010.13 1009.16 1008.14 1007.49 1007.44 1007.66 1007.97 1009.15 1009.97 1011.01 1011.98
1019.52 1019.06 1018.56 1018.07 1017.53 1016.94 1016.27 1015.57 1014.93 1014.30 1013.26 1012.59 1012.74 1011.68 1009.87 1009.76 1011.22 1013.10 1013.26 1012.58 1011.69 1011.00 1010.53 1010.22 1010.58 1011.02 1011.49 1011.88 1011.83 1011.61 1011.05 1010.21 1009.78 1009.47 1010.07 1010.59 1010.98 1010.42 1009.35 1007.98 1007.96 1007.87 1007.94 1008.49 1010.04 1011.25 1011.77
1019.48 1018.97 1018.37 1017.88 1017.40 1016.85 1016.15 1015.50 1014.79 1014.13 1013.70 1013.86 1013.39 1012.24 1010.12 1010.07 1011.74 1013.06 1012.91 1012.33 1011.54 1010.74 1010.53 1010.27 1010.45 1010.58 1011.19 1011.75 1012.03 1011.53 1010.82 1009.85 1009.88 1009.50 1010.20 1010.89 1011.59 1011.38 1010.23 1009.32 1008.62 1009.02 1008.74 1008.92 1009.00 1009.92 1011.38
1019.38 1018.81 1018.34 1017.91 1017.41 1016.88 1016.34 1015.37 1014.55 1013.90 1013.45 1013.67 1013.56 1013.22 1012.01 1011.61 1012.34 1012.69 1012.73 1012.17 1011.41 1010.64 1010.52 1010.30 1010.40 1010.54 1011.04 1011.36 1011.74 1011.61 1010.98 1009.90 1009.75 1009.80 1009.43 1010.84 1012.52 1012.50 1012.23 1011.90 1011.29 1010.50 1009.68 1009.08 1009.27 1010.17 1011.33
1019.28 1018.74 1018.17 1017.73 1017.31 1016.80 1016.15 1015.39 1014.48 1013.88 1013.10 1013.15 1013.40 1013.90 1013.19 1013.12 1012.93 1012.72 1012.60 1012.13 1011.59 1011.29 1010.94 1010.68 1010.73 1011.10 1011.27 1011.66 1011.69 1011.49 1011.11 1010.38 1010.07 1010.02 1010.36 1011.25 1012.63 1012.99 1012.61 1012.15 1011.60 1010.85 1010.11 1009.59 1009.46 1009.14 1010.18
1019.21 1018.59 1018.01 1017.55 1017.14 1016.69 1016.19 1015.45 1014.48 1013.74 1013.73 1013.50 1013.89 1013.91 1013.32 1013.29 1012.99 1012.82 1012.70 1012.48 1011.99 1011.75 1011.66 1011.54 1011.52 1011.52 1011.21 1011.96 1012.18 1012.05 1011.67 1010.96 1010.58 1010.61 1010.96 1011.79 1013.02 1013.19 1012.88 1012.14 1011.66 1010.98 1010.12 1009.22 1009.02 1009.48 1010.21
1019.18 1018.64 1018.01 1017.60 1017.16 1016.53 1016.25 1015.72 1014.74 1013.85 1013.10 1013.77 1013.73 1013.45 1013.46 1013.71 1013.43 1013.09 1012.94 1012.36 1012.17 1011.97 1011.96 1011.74 1011.65 1011.63 1011.68 1011.70 1011.67 1011.65 1011.55 1011.53 1011.22 1011.31 1011.98 1012.87 1013.50 1013.98 1013.79 1012.86 1011.93 1011.73 1010.82 1010.17 1009.50 1009.27 1009.66
1019.19 1018.68 1018.23 1017.81 1017.45 1016.78 1016.22 1015.77 1015.14 1014.66 1014.78 1014.82 1014.10 1014.05 1013.97 1014.56 1013.62 1013.21 1012.71 1012.38 1012.29 1012.30 1012.26 1012.05 1011.85 1011.86 1012.08 1011.70 1011.25 1011.41 1011.50 1011.53 1011.67 1011.74 1012.14 1012.86 1013.80 1014.49 1014.76 1013.56 1012.97 1011.75 1011.18 1010.42 1009.79 1009.90 1010.55
1019.06 1018.59 1018.20 1017.78 1017.36 1017.00 1016.72 1016.25 1015.48 1015.01 1014.67 1014.84 1014.28 1014.23 1014.33 1014.63 1013.96 1013.20 1012.65 1012.56 1012.68 1012.63 1012.55 1012.33 1012.10 1012.06 1011.96 1012.22 1012.80 1012.94 1013.09 1012.79 1012.85 1012.91 1012.72 1013.03 1014.00 1015.46 1015.48 1015.18 1013.89 1012.13 1011.66 1011.46 1011.68 1011.60 1011.43
1019.02 1018.57 1018.19 1017.84 1017.38 1016.81 1016.47 1015.98 1015.53 1015.08 1014.83 1014.54 1014.21 1013.92 1013.99 1014.19 1014.09 1013.13 1012.93 1012.84 1013.29 1013.40 1013.34 1012.83 1012.31 1012.22 1012.69 1013.94 1014.67 1015.25 1015.20 1015.07 1014.65 1014.04 1013.95 1014.20 1014.40 1015.55 1016.17 1016.21 1015.32 1013.17 1011.91 1011.30 1012.03 1012.65 1012.39
1018.86 1018.44 1018.05 1017.73 1017.06 1016.77 1016.30 1015.85 1015.29 1015.17 1014.94 1014.89 1014.25 1013.76 1013.98 1014.29 1013.58 1012.77 1012.70 1012.79 1013.14 1013.66 1014.02 1013.86 1013.54 1013.31 1013.69 1015.44 1016.68 1017.28 1017.07 1016.59 1016.30 1015.83 1015.55 1015.67 1016.21 1016.40 1016.57 1016.59 1015.98 1013.06 1012.15 1011.69 1013.05 1014.11 1013.54
1018.61 1018.25 1017.93 1017.70 1017.26 1016.97 1016.60 1016.25 1015.59 1014.92 1014.80 1014.89 1014.20 1013.62 1014.05 1014.21 1013.56 1012.63 1012.26 1012.45 1012.88 1013.54 1014.15 1014.12 1014.55 1014.62 1015.43 1016.81 1017.80 1018.35 1018.10 1017.94 1017.46 1016.77 1016.35 1016.51 1016.66 1017.19 1017.16 1016.31 1015.54 1013.72 1012.60 1013.26 1013.90 1014.37 1014.33
1018.44 1018.09 1017.80 1017.63 1017.24 1016.86 1016.69 1016.45 1015.79 1015.49 1014.87 1014.62 1014.64 1013.68 1013.68 1014.00 1013.64 1012.95 1012.22 1011.93 1011.92 1012.35 1013.25 1014.28 1014.97 1015.41 1015.94 1017.18 1018.22 1018.64 1019.03 1018.88 1018.74 1017.99 1016.82 1017.06 1016.89 1016.85 1017.17 1016.74 1015.39 1014.62 1014.26 1013.99 1014.09 1014.11 1014.82
Thickness
5712 5711 5710 5709 5707 5705 5702 5699 5698 5696 5695 5695 5694 5693 5693 5693 5694 5696 5699 5701 5703 5706 5709 5712 5718 5723 5728 5733 5750 5789 5795 5792 5789 5784 5779 5777 5772 5765 5758 5770 5774 5774 5782 5784 5777 5784 5784
5712 5710 5709 5708 5706 5704 5701 5698 5697 5695 5693 5691 5691 5691 5692 5692 5693 5694 5696 5697 5700 5703 5706 5710 5713 5718 5721 5726 5777 5783 5787 5785 5784 5780 5777 5777 5773 5776 5768 5771 5775 5790 5779 5778 5777 5775 5777
5711 5710 5709 5707 5704 5701 5698 5696 5694 5692 5690 5688 5687 5686 5686 5688 5690 5692 5693 5694 5696 5698 5701 5706 5709 5713 5716 5737 5770 5775 5777 5777 5781 5780 5770 5775 5778 5771 5774 5770 5794 5792 5774 5770 5769 5767 5776
5710 5709 5706 5704 5701 5698 5695 5693 5690 5687 5684 5683 5680 5679 5680 5683 5684 5686 5688 5690 5692 5695 5697 5701 5705 5707 5713 5757 5764 5766 5770 5769 5774 5775 5772 5776 5776 5770 5769 5781 5784 5778 5773 5752 5770 5777 5774
5708 5706 5703 5700 5698 5694 5691 5687 5685 5682 5680 5678 5678 5678 5678 5677 5680 5682 5686 5688 5689 5690 5693 5696 5697 5700 5715 5755 5750 5763 5766 5761 5762 5763 5764 5775 5773 5761 5769 5758 5747 5768 5750 5751 5756 5772 5774
5705 5702 5699 5696 5693 5689 5686 5683 5680 5679 5678 5675 5673 5674 5672 5675 5676 5676 5681 5686 5685 5684 5686 5689 5693 5693 5722 5737 5751 5756 5761 5760 5755 5751 5749 5752 5750 5743 5739 5739 5722 5743 5750 5754 5758 5766 5766
5700 5698 5695 5692 5689 5684 5681 5678 5674 5672 5671 5670 5671 5672 5671 5670 5670 5674 5675 5678 5677 5678 5680 5695 5703 5709 5723 5742 5758 5749 5756 5748 5751 5743 5726 5740 5727 5724 5742 5750 5754 5758 5757 5758 5757 5755 5747
5696 5694 5692 5689 5684 5679 5675 5670 5667 5665 5664 5665 5664 5666 5666 5667 5668 5668 5668 5674 5684 5684 5676 5699 5705 5706 5721 5731 5724 5740 5751 5732 5732 5720 5731 5720 5715 5742 5754 5753 5753 5751 5750 5738 5739 5747 5745
5693 5691 5687 5683 5678 5672 5668 5664 5661 5659 5659 5659 5658 5657 5660 5661 5663 5660 5667 5679 5689 5688 5671 5691 5700 5704 5715 5720 5715 5725 5737 5732 5725 5716 5717 5710 5735 5749 5748 5748 5743 5744 5746 5745 5734 5734 5738
5689 5685 5681 5676 5671 5666 5662 5657 5654 5652 5651 5651 5651 5653 5655 5664 5662 5662 5669 5684 5685 5686 5648 5675 5692 5705 5717 5720 5709 5740 5738 5728 5722 5710 5712 5720 5738 5739 5740 5736 5738 5729 5759 5758 5740 5728 5714
5683 5679 5675 5670 5664 5660 5656 5653 5650 5649 5648 5647 5648 5650 5652 5652 5654 5663 5678 5683 5685 5679 5629 5683 5688 5717 5713 5702 5713 5721 5739 5726 5709 5712 5710 5712 5727 5727 5726 5735 5741 5739 5756 5752 5740 5721 5714
5677 5673 5668 5665 5660 5657 5653 5651 5649 5647 5649 5648 5647 5647 5648 5649 5650 5668 5675 5679 5675 5636 5628 5661 5680 5679 5689 5695 5703 5713 5718 5727 5725 5710 5714 5716 5735 5733 5734 5747 5749 5756 5749 5736 5722 5717 5704
5671 5667 5662 5658 5655 5651 5649 5647 5645 5646 5645 5646 5647 5648 5644 5654 5662 5668 5670 5662 5626 5615 5652 5645 5657 5665 5668 5669 5686 5692 5694 5691 5682 5674 5678 5701 5714 5733 5743 5732 5741 5741 5718 5696 5683 5688 5702
5665 5660 5656 5652 5649 5647 5646 5643 5642 5643 5644 5650 5653 5654 5653 5659 5665 5663 5657 5635 5615 5634 5637 5652 5653 5660 5653 5656 5660 5669 5674 5671 5684 5681 5664 5671 5679 5719 5740 5733 5728 5724 5713 5689 5682 5678 5707
5659 5655 5652 5650 5646 5642 5639 5638 5639 5643 5645 5651 5657 5657 5655 5665 5663 5656 5640 5609 5615 5628 5641 5640 5642 5635 5640 5653 5658 5659 5651 5659 5665 5678 5664 5662 5680 5724 5737 5746 5739 5729 5709 5737 5716 5716 5705
5655 5651 5647 5643 5639 5638 5637 5635 5634 5638 5643 5649 5653 5656 5661 5667 5663 5653 5625 5613 5619 5636 5642 5641 5630 5632 5627 5633 5642 5642 5647 5661 5664 5675 5676 5679 5672 5710 5729 5742 5744 5736 5742 5711 5698 5683 5696
5650 5647 5645 5642 5640 5639 5637 5636 5635 5639 5645 5650 5654 5655 5668 5666 5664 5635 5609 5608 5625 5639 5642 5639 5637 5631 5628 5632 5635 5635 5641 5662 5668 5670 5674 5673 5669 5686 5713 5717 5717 5722 5721 5712 5713 5702 5693
5648 5644 5641 5637 5635 5633 5634 5635 5635 5636 5643 5647 5645 5644 5666 5665 5630 5602 5612 5622 5633 5637 5643 5645 5640 5635 5630 5627 5631 5632 5638 5652 5667 5672 5662 5665 5650 5660 5685 5716 5725 5728 5724 5722 5695 5703 5700
5643 5640 5638 5634 5632 5630 5632 5633 5635 5637 5639 5634 5638 5639 5663 5660 5620 5611 5617 5626 5634 5638 5637 5641 5637 5639 5631 5624 5622 5631 5640 5661 5665 5667 5656 5663 5642 5643 5671 5692 5703 5698 5714 5716 5714 5709 5701
5640 5637 5633 5629 5627 5625 5625 5631 5634 5637 5639 5638 5637 5631 5639 5638 5624 5621 5624 5627 5630 5642 5639 5639 5637 5637 5628 5627 5623 5625 5634 5656 5663 5665 5676 5662 5632 5644 5637 5655 5668 5675 5695 5712 5709 5693 5692
5637 5633 5631 5627 5624 5623 5623 5627 5632 5635 5642 5643 5637 5629 5630 5619 5624 5624 5623 5627 5626 5624 5632 5630 5630 5623 5625 5618 5622 5624 5631 5641 5653 5664 5660 5650 5635 5647 5653 5659 5672 5678 5689 5700 5706 5715 5711
5633 5631 5629 5625 5623 5621 5620 5624 5630 5635 5636 5641 5634 5631 5629 5622 5624 5624 5614 5618 5620 5622 5622 5619 5620 5621 5623 5612 5615 5616 5621 5632 5643 5652 5652 5643 5627 5642 5648 5664 5667 5676 5690 5701 5714 5706 5705
5629 5626 5625 5621 5619 5620 5618 5619 5626 5633 5640 5637 5637 5638 5633 5621 5621 5620 5614 5621 5620 5622 5623 5625 5623 5621 5620 5623 5627 5627 5629 5630 5635 5641 5632 5631 5624 5621 5631 5645 5655 5654 5674 5683 5703 5712 5712
5624 5622 5619 5616 5614 5616 5617 5617 5620 5624 5624 5625 5633 5632 5629 5618 5623 5623 5628 5628 5623 5622 5618 5623 5624 5620 5625 5631 5637 5636 5635 5635 5637 5635 5633 5624 5619 5612 5614 5631 5628 5659 5673 5685 5702 5706 5705
5621 5619 5617 5615 5614 5611 5609 5609 5613 5618 5624 5624 5630 5632 5627 5616 5620 5628 5631 5628 5624 5620 5621 5622 5625 5627 5627 5622 5615 5611 5609 5621 5620 5621 5625 5627 5614 5598 5602 5603 5630 5655 5661 5666 5665 5679 5693
5617 5616 5612 5611 5611 5611 5610 5611 5612 5617 5621 5625 5629 5633 5631 5619 5620 5629 5624 5624 5612 5610 5611 5620 5628 5628 5621 5601 5597 5594 5595 5601 5602 5612 5612 5613 5611 5600 5600 5591 5591 5627 5655 5675 5668 5657 5683
5614 5612 5611 5610 5613 5610 5611 5611 5613 5617 5621 5622 5628 5633 5629 5621 5627 5633 5622 5621 5618 5608 5604 5605 5615 5616 5617 5591 5580 5570 5576 5589 5581 5596 5599 5590 5586 5590 5595 5587 5599 5637 5653 5667 5644 5643 5670
5612 5610 5609 5608 5608 5606 5606 5606 5612 5620 5621 5621 5627 5632 5627 5621 5625 5637 5637 5627 5618 5608 5601 5608 5605 5605 5595 5585 5579 5570 5568 5571 5577 5592 5595 5590 5586 5580 5580 5591 5594 5632 5649 5637 5639 5641 5653
5609 5608 5607 5605 5605 5605 5604 5603 5608 5613 5621 5623 5624 5630 5631 5627 5627 5633 5639 5640 5636 5628 5611 5601 5602 5598 5594 5580 5576 5571 5568 5569 5569 5569 5593 5583 5588 5585 5585 5583 5607 5616 5625 5634 5636 5640 5641